Year,Month,Day,Hour,Minute,Value (Times are PST for temperature in C)
2017,07,18,00,00,16.70
2017,07,18,00,01,16.70
2017,07,18,00,02,16.70
2017,07,18,00,03,16.70
2017,07,18,00,04,16.70
2017,07,18,00,05,16.70
2017,07,18,00,06,16.70
2017,07,18,00,07,16.70
2017,07,18,00,08,16.70
2017,07,18,00,09,16.70
2017,07,18,00,10,16.70
2017,07,18,00,11,16.70
2017,07,18,00,12,16.70
2017,07,18,00,13,16.80
2017,07,18,00,14,16.80
2017,07,18,00,15,16.80
2017,07,18,00,16,16.80
2017,07,18,00,17,16.80
2017,07,18,00,18,16.80
2017,07,18,00,19,16.80
2017,07,18,00,20,16.80
2017,07,18,00,21,16.80
2017,07,18,00,22,16.70
2017,07,18,00,23,16.70
2017,07,18,00,24,16.60
2017,07,18,00,25,16.40
2017,07,18,00,26,16.40
2017,07,18,00,27,16.30
2017,07,18,00,28,16.20
2017,07,18,00,29,16.10
2017,07,18,00,30,16.00
2017,07,18,00,31,16.00
2017,07,18,00,32,15.90
2017,07,18,00,33,15.90
2017,07,18,00,34,15.80
2017,07,18,00,35,15.70
2017,07,18,00,36,15.70
2017,07,18,00,37,15.60
2017,07,18,00,38,15.60
2017,07,18,00,39,15.50
2017,07,18,00,40,15.40
2017,07,18,00,41,15.40
2017,07,18,00,42,15.30
2017,07,18,00,43,15.20
2017,07,18,00,44,15.20
2017,07,18,00,45,15.10
2017,07,18,00,46,15.10
2017,07,18,00,47,15.00
2017,07,18,00,48,14.90
2017,07,18,00,49,14.80
2017,07,18,00,50,14.80
2017,07,18,00,51,14.70
2017,07,18,00,52,14.70
2017,07,18,00,53,14.60
2017,07,18,00,54,14.50
2017,07,18,00,55,14.50
2017,07,18,00,56,14.40
2017,07,18,00,57,14.30
2017,07,18,00,58,14.20
2017,07,18,00,59,14.20
2017,07,18,01,00,14.10
2017,07,18,01,01,14.10
2017,07,18,01,02,14.10
2017,07,18,01,03,14.10
2017,07,18,01,04,14.00
2017,07,18,01,05,14.00
2017,07,18,01,06,14.00
2017,07,18,01,07,13.90
2017,07,18,01,08,13.90
2017,07,18,01,09,13.90
2017,07,18,01,10,13.80
2017,07,18,01,11,13.80
2017,07,18,01,12,13.80
2017,07,18,01,13,13.80
2017,07,18,01,14,13.80
2017,07,18,01,15,13.90
2017,07,18,01,16,13.90
2017,07,18,01,17,14.00
2017,07,18,01,18,14.00
2017,07,18,01,19,14.10
2017,07,18,01,20,14.10
2017,07,18,01,21,14.10
2017,07,18,01,22,14.00
2017,07,18,01,23,13.90
2017,07,18,01,24,13.90
2017,07,18,01,25,13.80
2017,07,18,01,26,13.80
2017,07,18,01,27,13.80
2017,07,18,01,28,13.70
2017,07,18,01,29,13.80
2017,07,18,01,30,13.80
2017,07,18,01,31,13.80
2017,07,18,01,32,13.80
2017,07,18,01,33,13.80
2017,07,18,01,34,13.80
2017,07,18,01,35,13.80
2017,07,18,01,36,13.80
2017,07,18,01,37,13.80
2017,07,18,01,38,13.70
2017,07,18,01,39,13.70
2017,07,18,01,40,13.70
2017,07,18,01,41,13.60
2017,07,18,01,42,13.50
2017,07,18,01,43,13.50
2017,07,18,01,44,13.40
2017,07,18,01,45,13.40
2017,07,18,01,46,13.30
2017,07,18,01,47,13.30
2017,07,18,01,48,13.30
2017,07,18,01,49,13.20
2017,07,18,01,50,13.20
2017,07,18,01,51,13.20
2017,07,18,01,52,13.20
2017,07,18,01,53,13.20
2017,07,18,01,54,13.30
2017,07,18,01,55,13.30
2017,07,18,01,56,13.40
2017,07,18,01,57,13.60
2017,07,18,01,58,13.70
2017,07,18,01,59,13.90
2017,07,18,02,00,14.10
2017,07,18,02,01,14.30
2017,07,18,02,02,14.50
2017,07,18,02,03,14.70
2017,07,18,02,04,14.80
2017,07,18,02,05,15.00
2017,07,18,02,06,15.10
2017,07,18,02,07,15.20
2017,07,18,02,08,15.30
2017,07,18,02,09,15.30
2017,07,18,02,10,15.30
2017,07,18,02,11,15.30
2017,07,18,02,12,15.30
2017,07,18,02,13,15.40
2017,07,18,02,14,15.40
2017,07,18,02,15,15.50
2017,07,18,02,16,15.60
2017,07,18,02,17,15.70
2017,07,18,02,18,15.70
2017,07,18,02,19,15.70
2017,07,18,02,20,15.70
2017,07,18,02,21,15.70
2017,07,18,02,22,15.60
2017,07,18,02,23,15.60
2017,07,18,02,24,15.50
2017,07,18,02,25,15.40
2017,07,18,02,26,15.40
2017,07,18,02,27,15.40
2017,07,18,02,28,15.40
2017,07,18,02,29,15.30
2017,07,18,02,30,15.30
2017,07,18,02,31,15.30
2017,07,18,02,32,15.30
2017,07,18,02,33,15.30
2017,07,18,02,34,15.20
2017,07,18,02,35,15.20
2017,07,18,02,36,15.20
2017,07,18,02,37,15.10
2017,07,18,02,38,15.10
2017,07,18,02,39,15.10
2017,07,18,02,40,15.00
2017,07,18,02,41,15.00
2017,07,18,02,42,14.90
2017,07,18,02,43,14.90
2017,07,18,02,44,14.80
2017,07,18,02,45,14.80
2017,07,18,02,46,14.80
2017,07,18,02,47,14.70
2017,07,18,02,48,14.70
2017,07,18,02,49,14.60
2017,07,18,02,50,14.60
2017,07,18,02,51,14.50
2017,07,18,02,52,14.40
2017,07,18,02,53,14.50
2017,07,18,02,54,14.50
2017,07,18,02,55,14.50
2017,07,18,02,56,14.50
2017,07,18,02,57,14.50
2017,07,18,02,58,14.40
2017,07,18,02,59,14.40
2017,07,18,03,00,14.40
2017,07,18,03,01,14.40
2017,07,18,03,02,14.30
2017,07,18,03,03,14.30
2017,07,18,03,04,14.30
2017,07,18,03,05,14.30
2017,07,18,03,06,14.30
2017,07,18,03,07,14.20
2017,07,18,03,08,14.20
2017,07,18,03,09,14.10
2017,07,18,03,10,14.00
2017,07,18,03,11,14.00
2017,07,18,03,12,13.90
2017,07,18,03,13,13.90
2017,07,18,03,14,13.90
2017,07,18,03,15,13.90
2017,07,18,03,16,13.80
2017,07,18,03,17,13.80
2017,07,18,03,18,13.70
2017,07,18,03,19,13.70
2017,07,18,03,20,13.60
2017,07,18,03,21,13.60
2017,07,18,03,22,13.50
2017,07,18,03,23,13.40
2017,07,18,03,24,13.40
2017,07,18,03,25,13.30
2017,07,18,03,26,13.30
2017,07,18,03,27,13.20
2017,07,18,03,28,13.20
2017,07,18,03,29,13.20
2017,07,18,03,30,13.20
2017,07,18,03,31,13.20
2017,07,18,03,32,13.20
2017,07,18,03,33,13.20
2017,07,18,03,34,13.20
2017,07,18,03,35,13.20
2017,07,18,03,36,13.20
2017,07,18,03,37,13.30
2017,07,18,03,38,13.30
2017,07,18,03,39,13.20
2017,07,18,03,40,13.20
2017,07,18,03,41,13.20
2017,07,18,03,42,13.20
2017,07,18,03,43,13.20
2017,07,18,03,44,13.10
2017,07,18,03,45,13.10
2017,07,18,03,46,13.00
2017,07,18,03,47,13.00
2017,07,18,03,48,12.90
2017,07,18,03,49,12.90
2017,07,18,03,50,12.80
2017,07,18,03,51,12.80
2017,07,18,03,52,12.80
2017,07,18,03,53,12.80
2017,07,18,03,54,12.80
2017,07,18,03,55,12.70
2017,07,18,03,56,12.70
2017,07,18,03,57,12.70
2017,07,18,03,58,12.70
2017,07,18,03,59,12.70
2017,07,18,04,00,12.70
2017,07,18,04,01,12.70
2017,07,18,04,02,12.70
2017,07,18,04,03,12.70
2017,07,18,04,04,12.70
2017,07,18,04,05,12.70
2017,07,18,04,06,12.70
2017,07,18,04,07,12.70
2017,07,18,04,08,12.70
2017,07,18,04,09,12.80
2017,07,18,04,10,12.80
2017,07,18,04,11,12.70
2017,07,18,04,12,12.70
2017,07,18,04,13,12.70
2017,07,18,04,14,12.70
2017,07,18,04,15,12.70
2017,07,18,04,16,12.70
2017,07,18,04,17,12.70
2017,07,18,04,18,12.70
2017,07,18,04,19,12.70
2017,07,18,04,20,12.70
2017,07,18,04,21,12.70
2017,07,18,04,22,12.70
2017,07,18,04,23,12.60
2017,07,18,04,24,12.60
2017,07,18,04,25,12.50
2017,07,18,04,26,12.50
2017,07,18,04,27,12.40
2017,07,18,04,28,12.40
2017,07,18,04,29,12.40
2017,07,18,04,30,12.40
2017,07,18,04,31,12.40
2017,07,18,04,32,12.40
2017,07,18,04,33,12.40
2017,07,18,04,34,12.40
2017,07,18,04,35,12.50
2017,07,18,04,36,12.50
2017,07,18,04,37,12.60
2017,07,18,04,38,12.60
2017,07,18,04,39,12.70
2017,07,18,04,40,12.80
2017,07,18,04,41,12.80
2017,07,18,04,42,12.90
2017,07,18,04,43,12.90
2017,07,18,04,44,13.00
2017,07,18,04,45,13.00
2017,07,18,04,46,13.10
2017,07,18,04,47,13.10
2017,07,18,04,48,13.00
2017,07,18,04,49,13.00
2017,07,18,04,50,12.90
2017,07,18,04,51,12.90
2017,07,18,04,52,13.00
2017,07,18,04,53,13.00
2017,07,18,04,54,12.90
2017,07,18,04,55,12.90
2017,07,18,04,56,12.80
2017,07,18,04,57,12.80
2017,07,18,04,58,12.80
2017,07,18,04,59,12.70
2017,07,18,05,00,12.70
2017,07,18,05,01,12.70
2017,07,18,05,02,12.70
2017,07,18,05,03,12.70
2017,07,18,05,04,12.70
2017,07,18,05,05,12.70
2017,07,18,05,06,12.80
2017,07,18,05,07,12.80
2017,07,18,05,08,12.80
2017,07,18,05,09,12.80
2017,07,18,05,10,12.90
2017,07,18,05,11,12.90
2017,07,18,05,12,12.90
2017,07,18,05,13,12.90
2017,07,18,05,14,12.80
2017,07,18,05,15,12.80
2017,07,18,05,16,12.70
2017,07,18,05,17,12.70
2017,07,18,05,18,12.60
2017,07,18,05,19,12.50
2017,07,18,05,20,12.50
2017,07,18,05,21,12.40
2017,07,18,05,22,12.40
2017,07,18,05,23,12.40
2017,07,18,05,24,12.40
2017,07,18,05,25,12.40
2017,07,18,05,26,12.40
2017,07,18,05,27,12.30
2017,07,18,05,28,12.30
2017,07,18,05,29,12.30
2017,07,18,05,30,12.30
2017,07,18,05,31,12.20
2017,07,18,05,32,12.20
2017,07,18,05,33,12.20
2017,07,18,05,34,12.10
2017,07,18,05,35,12.10
2017,07,18,05,36,12.00
2017,07,18,05,37,12.00
2017,07,18,05,38,11.90
2017,07,18,05,39,11.90
2017,07,18,05,40,11.80
2017,07,18,05,41,11.80
2017,07,18,05,42,11.80
2017,07,18,05,43,11.80
2017,07,18,05,44,11.70
2017,07,18,05,45,11.70
2017,07,18,05,46,11.70
2017,07,18,05,47,11.80
2017,07,18,05,48,11.80
2017,07,18,05,49,11.80
2017,07,18,05,50,11.80
2017,07,18,05,51,11.80
2017,07,18,05,52,11.80
2017,07,18,05,53,11.80
2017,07,18,05,54,11.80
2017,07,18,05,55,11.90
2017,07,18,05,56,11.90
2017,07,18,05,57,12.00
2017,07,18,05,58,12.00
2017,07,18,05,59,12.00
2017,07,18,06,00,12.00
2017,07,18,06,01,12.10
2017,07,18,06,02,12.10
2017,07,18,06,03,12.10
2017,07,18,06,04,12.10
2017,07,18,06,05,12.20
2017,07,18,06,06,12.20
2017,07,18,06,07,12.30
2017,07,18,06,08,12.40
2017,07,18,06,09,12.50
2017,07,18,06,10,12.60
2017,07,18,06,11,12.60
2017,07,18,06,12,12.70
2017,07,18,06,13,12.80
2017,07,18,06,14,13.00
2017,07,18,06,15,13.10
2017,07,18,06,16,13.20
2017,07,18,06,17,13.20
2017,07,18,06,18,13.30
2017,07,18,06,19,13.30
2017,07,18,06,20,13.40
2017,07,18,06,21,13.40
2017,07,18,06,22,13.50
2017,07,18,06,23,13.60
2017,07,18,06,24,13.70
2017,07,18,06,25,13.80
2017,07,18,06,26,13.90
2017,07,18,06,27,14.00
2017,07,18,06,28,14.00
2017,07,18,06,29,14.10
2017,07,18,06,30,14.20
2017,07,18,06,31,14.20
2017,07,18,06,32,14.30
2017,07,18,06,33,14.30
2017,07,18,06,34,14.40
2017,07,18,06,35,14.50
2017,07,18,06,36,14.50
2017,07,18,06,37,14.60
2017,07,18,06,38,14.60
2017,07,18,06,39,14.70
2017,07,18,06,40,14.70
2017,07,18,06,41,14.80
2017,07,18,06,42,14.80
2017,07,18,06,43,14.90
2017,07,18,06,44,14.90
2017,07,18,06,45,15.00
2017,07,18,06,46,15.00
2017,07,18,06,47,15.00
2017,07,18,06,48,15.10
2017,07,18,06,49,15.10
2017,07,18,06,50,15.20
2017,07,18,06,51,15.20
2017,07,18,06,52,15.20
2017,07,18,06,53,15.30
2017,07,18,06,54,15.30
2017,07,18,06,55,15.30
2017,07,18,06,56,15.40
2017,07,18,06,57,15.40
2017,07,18,06,58,15.50
2017,07,18,06,59,15.50
2017,07,18,07,00,15.60
2017,07,18,07,01,15.60
2017,07,18,07,02,15.70
2017,07,18,07,03,15.70
2017,07,18,07,04,15.80
2017,07,18,07,05,15.80
2017,07,18,07,06,15.90
2017,07,18,07,07,15.90
2017,07,18,07,08,16.00
2017,07,18,07,09,16.10
2017,07,18,07,10,16.20
2017,07,18,07,11,16.20
2017,07,18,07,12,16.30
2017,07,18,07,13,16.30
2017,07,18,07,14,16.40
2017,07,18,07,15,16.40
2017,07,18,07,16,16.40
2017,07,18,07,17,16.50
2017,07,18,07,18,16.50
2017,07,18,07,19,16.60
2017,07,18,07,20,16.60
2017,07,18,07,21,16.70
2017,07,18,07,22,16.70
2017,07,18,07,23,16.70
2017,07,18,07,24,16.80
2017,07,18,07,25,16.80
2017,07,18,07,26,16.90
2017,07,18,07,27,16.90
2017,07,18,07,28,16.90
2017,07,18,07,29,17.00
2017,07,18,07,30,17.00
2017,07,18,07,31,17.10
2017,07,18,07,32,17.10
2017,07,18,07,33,17.10
2017,07,18,07,34,17.20
2017,07,18,07,35,17.20
2017,07,18,07,36,17.20
2017,07,18,07,37,17.20
2017,07,18,07,38,17.20
2017,07,18,07,39,17.30
2017,07,18,07,40,17.30
2017,07,18,07,41,17.30
2017,07,18,07,42,17.30
2017,07,18,07,43,17.30
2017,07,18,07,44,17.30
2017,07,18,07,45,17.30
2017,07,18,07,46,17.30
2017,07,18,07,47,17.40
2017,07,18,07,48,17.40
2017,07,18,07,49,17.40
2017,07,18,07,50,17.40
2017,07,18,07,51,17.40
2017,07,18,07,52,17.40
2017,07,18,07,53,17.40
2017,07,18,07,54,17.40
2017,07,18,07,55,17.40
2017,07,18,07,56,17.50
2017,07,18,07,57,17.50
2017,07,18,07,58,17.50
2017,07,18,07,59,17.40
2017,07,18,08,00,17.40
2017,07,18,08,01,17.40
2017,07,18,08,02,17.40
2017,07,18,08,03,17.40
2017,07,18,08,04,17.40
2017,07,18,08,05,17.40
2017,07,18,08,06,17.40
2017,07,18,08,07,17.50
2017,07,18,08,08,17.50
2017,07,18,08,09,17.60
2017,07,18,08,10,17.60
2017,07,18,08,11,17.60
2017,07,18,08,12,17.60
2017,07,18,08,13,17.60
2017,07,18,08,14,17.60
2017,07,18,08,15,17.70
2017,07,18,08,16,17.70
2017,07,18,08,17,17.70
2017,07,18,08,18,17.70
2017,07,18,08,19,17.80
2017,07,18,08,20,17.70
2017,07,18,08,21,17.70
2017,07,18,08,22,17.70
2017,07,18,08,23,17.70
2017,07,18,08,24,17.60
2017,07,18,08,25,17.60
2017,07,18,08,26,17.60
2017,07,18,08,27,17.60
2017,07,18,08,28,17.60
2017,07,18,08,29,17.70
2017,07,18,08,30,17.80
2017,07,18,08,31,17.80
2017,07,18,08,32,17.80
2017,07,18,08,33,17.80
2017,07,18,08,34,17.80
2017,07,18,08,35,17.80
2017,07,18,08,36,17.80
2017,07,18,08,37,17.80
2017,07,18,08,38,17.80
2017,07,18,08,39,17.90
2017,07,18,08,40,17.90
2017,07,18,08,41,18.00
2017,07,18,08,42,18.00
2017,07,18,08,43,18.20
2017,07,18,08,44,18.20
2017,07,18,08,45,18.30
2017,07,18,08,46,18.30
2017,07,18,08,47,18.30
2017,07,18,08,48,18.30
2017,07,18,08,49,18.40
2017,07,18,08,50,18.40
2017,07,18,08,51,18.40
2017,07,18,08,52,18.50
2017,07,18,08,53,18.50
2017,07,18,08,54,18.60
2017,07,18,08,55,18.60
2017,07,18,08,56,18.60
2017,07,18,08,57,18.70
2017,07,18,08,58,18.70
2017,07,18,08,59,18.70
2017,07,18,09,00,18.70
2017,07,18,09,01,18.70
2017,07,18,09,02,18.70
2017,07,18,09,03,18.70
2017,07,18,09,04,18.70
2017,07,18,09,05,18.70
2017,07,18,09,06,18.70
2017,07,18,09,07,18.80
2017,07,18,09,08,18.80
2017,07,18,09,09,18.80
2017,07,18,09,10,18.80
2017,07,18,09,11,18.70
2017,07,18,09,12,18.70
2017,07,18,09,13,18.80
2017,07,18,09,14,18.80
2017,07,18,09,15,18.80
2017,07,18,09,16,18.80
2017,07,18,09,17,18.90
2017,07,18,09,18,18.90
2017,07,18,09,19,18.90
2017,07,18,09,20,19.00
2017,07,18,09,21,19.00
2017,07,18,09,22,19.10
2017,07,18,09,23,19.20
2017,07,18,09,24,19.20
2017,07,18,09,25,19.30
2017,07,18,09,26,19.30
2017,07,18,09,27,19.30
2017,07,18,09,28,19.30
2017,07,18,09,29,19.30
2017,07,18,09,30,19.30
2017,07,18,09,31,19.30
2017,07,18,09,32,19.30
2017,07,18,09,33,19.30
2017,07,18,09,34,19.30
2017,07,18,09,35,19.30
2017,07,18,09,36,19.30
2017,07,18,09,37,19.30
2017,07,18,09,38,19.30
2017,07,18,09,39,19.30
2017,07,18,09,40,19.40
2017,07,18,09,41,19.40
2017,07,18,09,42,19.50
2017,07,18,09,43,19.50
2017,07,18,09,44,19.60
2017,07,18,09,45,19.60
2017,07,18,09,46,19.60
2017,07,18,09,47,19.60
2017,07,18,09,48,19.60
2017,07,18,09,49,19.70
2017,07,18,09,50,19.70
2017,07,18,09,51,19.80
2017,07,18,09,52,19.80
2017,07,18,09,53,19.80
2017,07,18,09,54,19.80
2017,07,18,09,55,19.80
2017,07,18,09,56,19.80
2017,07,18,09,57,19.80
2017,07,18,09,58,19.80
2017,07,18,09,59,19.80
2017,07,18,10,00,19.80
2017,07,18,10,01,19.80
2017,07,18,10,02,19.80
2017,07,18,10,03,19.80
2017,07,18,10,04,19.80
2017,07,18,10,05,19.80
2017,07,18,10,06,19.90
2017,07,18,10,07,20.00
2017,07,18,10,08,20.10
2017,07,18,10,09,20.20
2017,07,18,10,10,20.20
2017,07,18,10,11,20.20
2017,07,18,10,12,20.20
2017,07,18,10,13,20.10
2017,07,18,10,14,20.10
2017,07,18,10,15,20.10
2017,07,18,10,16,20.10
2017,07,18,10,17,20.10
2017,07,18,10,18,20.20
2017,07,18,10,19,20.20
2017,07,18,10,20,20.20
2017,07,18,10,21,20.30
2017,07,18,10,22,20.30
2017,07,18,10,23,20.30
2017,07,18,10,24,20.30
2017,07,18,10,25,20.40
2017,07,18,10,26,20.40
2017,07,18,10,27,20.40
2017,07,18,10,28,20.30
2017,07,18,10,29,20.30
2017,07,18,10,30,20.40
2017,07,18,10,31,20.50
2017,07,18,10,32,20.50
2017,07,18,10,33,20.60
2017,07,18,10,34,20.60
2017,07,18,10,35,20.60
2017,07,18,10,36,20.60
2017,07,18,10,37,20.60
2017,07,18,10,38,20.60
2017,07,18,10,39,20.70
2017,07,18,10,40,20.70
2017,07,18,10,41,20.70
2017,07,18,10,42,20.70
2017,07,18,10,43,20.80
2017,07,18,10,44,20.90
2017,07,18,10,45,20.90
2017,07,18,10,46,21.00
2017,07,18,10,47,21.00
2017,07,18,10,48,21.00
2017,07,18,10,49,21.00
2017,07,18,10,50,21.10
2017,07,18,10,51,21.10
2017,07,18,10,52,21.20
2017,07,18,10,53,21.20
2017,07,18,10,54,21.20
2017,07,18,10,55,21.30
2017,07,18,10,56,21.30
2017,07,18,10,57,21.20
2017,07,18,10,58,21.20
2017,07,18,10,59,21.10
2017,07,18,11,00,21.20
2017,07,18,11,01,21.20
2017,07,18,11,02,21.20
2017,07,18,11,03,21.20
2017,07,18,11,04,21.30
2017,07,18,11,05,21.40
2017,07,18,11,06,21.40
2017,07,18,11,07,21.50
2017,07,18,11,08,21.50
2017,07,18,11,09,21.40
2017,07,18,11,10,21.50
2017,07,18,11,11,21.60
2017,07,18,11,12,21.70
2017,07,18,11,13,21.80
2017,07,18,11,14,21.80
2017,07,18,11,15,21.80
2017,07,18,11,16,21.80
2017,07,18,11,17,21.80
2017,07,18,11,18,21.90
2017,07,18,11,19,22.00
2017,07,18,11,20,22.10
2017,07,18,11,21,22.10
2017,07,18,11,22,22.20
2017,07,18,11,23,22.20
2017,07,18,11,24,22.20
2017,07,18,11,25,22.20
2017,07,18,11,26,22.20
2017,07,18,11,27,22.20
2017,07,18,11,28,22.20
2017,07,18,11,29,22.30
2017,07,18,11,30,22.30
2017,07,18,11,31,22.40
2017,07,18,11,32,22.40
2017,07,18,11,33,22.40
2017,07,18,11,34,22.40
2017,07,18,11,35,22.30
2017,07,18,11,36,22.30
2017,07,18,11,37,22.20
2017,07,18,11,38,22.10
2017,07,18,11,39,22.10
2017,07,18,11,40,22.00
2017,07,18,11,41,22.00
2017,07,18,11,42,21.90
2017,07,18,11,43,21.80
2017,07,18,11,44,21.60
2017,07,18,11,45,21.50
2017,07,18,11,46,21.50
2017,07,18,11,47,21.50
2017,07,18,11,48,21.60
2017,07,18,11,49,21.70
2017,07,18,11,50,21.80
2017,07,18,11,51,21.90
2017,07,18,11,52,22.00
2017,07,18,11,53,22.10
2017,07,18,11,54,22.10
2017,07,18,11,55,22.20
2017,07,18,11,56,22.20
2017,07,18,11,57,22.20
2017,07,18,11,58,22.30
2017,07,18,11,59,22.40
2017,07,18,12,00,22.50
2017,07,18,12,01,22.60
2017,07,18,12,02,22.70
2017,07,18,12,03,22.60
2017,07,18,12,04,22.50
2017,07,18,12,05,22.40
2017,07,18,12,06,22.30
2017,07,18,12,07,22.30
2017,07,18,12,08,22.40
2017,07,18,12,09,22.50
2017,07,18,12,10,22.50
2017,07,18,12,11,22.60
2017,07,18,12,12,22.60
2017,07,18,12,13,22.70
2017,07,18,12,14,22.80
2017,07,18,12,15,22.90
2017,07,18,12,16,22.90
2017,07,18,12,17,22.90
2017,07,18,12,18,22.90
2017,07,18,12,19,23.00
2017,07,18,12,20,23.10
2017,07,18,12,21,23.20
2017,07,18,12,22,23.30
2017,07,18,12,23,23.30
2017,07,18,12,24,23.30
2017,07,18,12,25,23.40
2017,07,18,12,26,23.40
2017,07,18,12,27,23.50
2017,07,18,12,28,23.60
2017,07,18,12,29,23.60
2017,07,18,12,30,23.50
2017,07,18,12,31,23.30
2017,07,18,12,32,23.10
2017,07,18,12,33,23.00
2017,07,18,12,34,22.90
2017,07,18,12,35,22.80
2017,07,18,12,36,22.90
2017,07,18,12,37,22.90
2017,07,18,12,38,23.00
2017,07,18,12,39,23.00
2017,07,18,12,40,23.10
2017,07,18,12,41,23.10
2017,07,18,12,42,23.20
2017,07,18,12,43,23.30
2017,07,18,12,44,23.40
2017,07,18,12,45,23.50
2017,07,18,12,46,23.60
2017,07,18,12,47,23.60
2017,07,18,12,48,23.60
2017,07,18,12,49,23.60
2017,07,18,12,50,23.40
2017,07,18,12,51,23.30
2017,07,18,12,52,23.20
2017,07,18,12,53,23.00
2017,07,18,12,54,22.90
2017,07,18,12,55,22.90
2017,07,18,12,56,22.90
2017,07,18,12,57,22.90
2017,07,18,12,58,22.90
2017,07,18,12,59,23.00
2017,07,18,13,00,23.00
2017,07,18,13,01,23.00
2017,07,18,13,02,23.10
2017,07,18,13,03,23.10
2017,07,18,13,04,23.10
2017,07,18,13,05,23.10
2017,07,18,13,06,23.10
2017,07,18,13,07,23.10
2017,07,18,13,08,23.00
2017,07,18,13,09,23.00
2017,07,18,13,10,23.10
2017,07,18,13,11,23.10
2017,07,18,13,12,23.20
2017,07,18,13,13,23.20
2017,07,18,13,14,23.30
2017,07,18,13,15,23.30
2017,07,18,13,16,23.40
2017,07,18,13,17,23.40
2017,07,18,13,18,23.40
2017,07,18,13,19,23.40
2017,07,18,13,20,23.40
2017,07,18,13,21,23.50
2017,07,18,13,22,23.50
2017,07,18,13,23,23.40
2017,07,18,13,24,23.30
2017,07,18,13,25,23.30
2017,07,18,13,26,23.30
2017,07,18,13,27,23.30
2017,07,18,13,28,23.20
2017,07,18,13,29,23.10
2017,07,18,13,30,23.00
2017,07,18,13,31,23.00
2017,07,18,13,32,23.00
2017,07,18,13,33,22.90
2017,07,18,13,34,22.90
2017,07,18,13,35,22.90
2017,07,18,13,36,22.90
2017,07,18,13,37,23.00
2017,07,18,13,38,23.00
2017,07,18,13,39,23.10
2017,07,18,13,40,23.20
2017,07,18,13,41,23.20
2017,07,18,13,42,23.20
2017,07,18,13,43,23.20
2017,07,18,13,44,23.20
2017,07,18,13,45,23.20
2017,07,18,13,46,23.20
2017,07,18,13,47,23.20
2017,07,18,13,48,23.10
2017,07,18,13,49,22.90
2017,07,18,13,50,22.80
2017,07,18,13,51,22.70
2017,07,18,13,52,22.70
2017,07,18,13,53,22.80
2017,07,18,13,54,22.90
2017,07,18,13,55,22.90
2017,07,18,13,56,22.80
2017,07,18,13,57,22.70
2017,07,18,13,58,22.70
2017,07,18,13,59,22.70
2017,07,18,14,00,22.60
2017,07,18,14,01,22.60
2017,07,18,14,02,22.60
2017,07,18,14,03,22.60
2017,07,18,14,04,22.60
2017,07,18,14,05,22.60
2017,07,18,14,06,22.70
2017,07,18,14,07,22.80
2017,07,18,14,08,22.90
2017,07,18,14,09,23.00
2017,07,18,14,10,23.10
2017,07,18,14,11,23.10
2017,07,18,14,12,23.20
2017,07,18,14,13,23.20
2017,07,18,14,14,23.20
2017,07,18,14,15,23.20
2017,07,18,14,16,23.10
2017,07,18,14,17,23.10
2017,07,18,14,18,23.10
2017,07,18,14,19,23.10
2017,07,18,14,20,23.10
2017,07,18,14,21,23.10
2017,07,18,14,22,23.20
2017,07,18,14,23,23.20
2017,07,18,14,24,23.30
2017,07,18,14,25,23.30
2017,07,18,14,26,23.40
2017,07,18,14,27,23.40
2017,07,18,14,28,23.50
2017,07,18,14,29,23.60
2017,07,18,14,30,23.70
2017,07,18,14,31,23.70
2017,07,18,14,32,23.80
2017,07,18,14,33,23.80
2017,07,18,14,34,23.80
2017,07,18,14,35,23.80
2017,07,18,14,36,23.80
2017,07,18,14,37,23.90
2017,07,18,14,38,23.90
2017,07,18,14,39,23.90
2017,07,18,14,40,23.80
2017,07,18,14,41,23.80
2017,07,18,14,42,23.90
2017,07,18,14,43,24.00
2017,07,18,14,44,24.10
2017,07,18,14,45,24.10
2017,07,18,14,46,24.10
2017,07,18,14,47,24.20
2017,07,18,14,48,24.20
2017,07,18,14,49,24.20
2017,07,18,14,50,24.20
2017,07,18,14,51,24.20
2017,07,18,14,52,24.20
2017,07,18,14,53,24.20
2017,07,18,14,54,24.20
2017,07,18,14,55,24.20
2017,07,18,14,56,24.30
2017,07,18,14,57,24.30
2017,07,18,14,58,24.40
2017,07,18,14,59,24.50
2017,07,18,15,00,24.60
2017,07,18,15,01,24.80
2017,07,18,15,02,25.00
2017,07,18,15,03,25.10
2017,07,18,15,04,25.20
2017,07,18,15,05,25.30
2017,07,18,15,06,25.40
2017,07,18,15,07,25.40
2017,07,18,15,08,25.50
2017,07,18,15,09,25.60
2017,07,18,15,10,25.70
2017,07,18,15,11,25.70
2017,07,18,15,12,25.80
2017,07,18,15,13,25.70
2017,07,18,15,14,25.80
2017,07,18,15,15,25.70
2017,07,18,15,16,25.70
2017,07,18,15,17,25.80
2017,07,18,15,18,26.00
2017,07,18,15,19,26.10
2017,07,18,15,20,26.10
2017,07,18,15,21,26.10
2017,07,18,15,22,26.10
2017,07,18,15,23,26.00
2017,07,18,15,24,26.00
2017,07,18,15,25,25.90
2017,07,18,15,26,26.00
2017,07,18,15,27,26.00
2017,07,18,15,28,26.00
2017,07,18,15,29,26.00
2017,07,18,15,30,26.00
2017,07,18,15,31,26.10
2017,07,18,15,32,26.10
2017,07,18,15,33,26.10
2017,07,18,15,34,26.10
2017,07,18,15,35,26.10
2017,07,18,15,36,26.10
2017,07,18,15,37,26.20
2017,07,18,15,38,26.20
2017,07,18,15,39,26.20
2017,07,18,15,40,26.30
2017,07,18,15,41,26.30
2017,07,18,15,42,26.40
2017,07,18,15,43,26.40
2017,07,18,15,44,26.40
2017,07,18,15,45,26.40
2017,07,18,15,46,26.30
2017,07,18,15,47,26.30
2017,07,18,15,48,26.20
2017,07,18,15,49,26.20
2017,07,18,15,50,26.10
2017,07,18,15,51,25.90
2017,07,18,15,52,25.80
2017,07,18,15,53,25.60
2017,07,18,15,54,25.50
2017,07,18,15,55,25.40
2017,07,18,15,56,25.30
2017,07,18,15,57,25.20
2017,07,18,15,58,25.10
2017,07,18,15,59,25.10
2017,07,18,16,00,25.10
2017,07,18,16,01,25.10
2017,07,18,16,02,25.10
2017,07,18,16,03,25.10
2017,07,18,16,04,25.20
2017,07,18,16,05,25.20
2017,07,18,16,06,25.30
2017,07,18,16,07,25.30
2017,07,18,16,08,25.30
2017,07,18,16,09,25.30
2017,07,18,16,10,25.30
2017,07,18,16,11,25.30
2017,07,18,16,12,25.30
2017,07,18,16,13,25.30
2017,07,18,16,14,25.20
2017,07,18,16,15,25.10
2017,07,18,16,16,25.00
2017,07,18,16,17,25.00
2017,07,18,16,18,24.90
2017,07,18,16,19,24.90
2017,07,18,16,20,24.90
2017,07,18,16,21,25.00
2017,07,18,16,22,25.00
2017,07,18,16,23,25.10
2017,07,18,16,24,25.10
2017,07,18,16,25,25.20
2017,07,18,16,26,25.20
2017,07,18,16,27,25.20
2017,07,18,16,28,25.20
2017,07,18,16,29,25.30
2017,07,18,16,30,25.40
2017,07,18,16,31,25.40
2017,07,18,16,32,25.60
2017,07,18,16,33,25.70
2017,07,18,16,34,25.90
2017,07,18,16,35,26.10
2017,07,18,16,36,26.20
2017,07,18,16,37,26.30
2017,07,18,16,38,26.40
2017,07,18,16,39,26.40
2017,07,18,16,40,26.40
2017,07,18,16,41,26.40
2017,07,18,16,42,26.40
2017,07,18,16,43,26.40
2017,07,18,16,44,26.40
2017,07,18,16,45,26.40
2017,07,18,16,46,26.50
2017,07,18,16,47,26.60
2017,07,18,16,48,26.70
2017,07,18,16,49,26.70
2017,07,18,16,50,26.80
2017,07,18,16,51,26.80
2017,07,18,16,52,26.80
2017,07,18,16,53,26.80
2017,07,18,16,54,26.80
2017,07,18,16,55,26.80
2017,07,18,16,56,26.80
2017,07,18,16,57,26.80
2017,07,18,16,58,26.80
2017,07,18,16,59,26.80
2017,07,18,17,00,26.80
2017,07,18,17,01,26.90
2017,07,18,17,02,27.00
2017,07,18,17,03,27.10
2017,07,18,17,04,27.20
2017,07,18,17,05,27.30
2017,07,18,17,06,27.30
2017,07,18,17,07,27.40
2017,07,18,17,08,27.50
2017,07,18,17,09,27.50
2017,07,18,17,10,27.60
2017,07,18,17,11,27.60
2017,07,18,17,12,27.70
2017,07,18,17,13,27.70
2017,07,18,17,14,27.70
2017,07,18,17,15,27.80
2017,07,18,17,16,27.80
2017,07,18,17,17,27.80
2017,07,18,17,18,27.80
2017,07,18,17,19,27.70